OH2HCY Weather Reports


time (UTC)temp
F
wind
direction
speed
knots
gust
knots
rain 1hr
in
rain 24hr
in
rain mn
in
humidity
%
barometer
mb
20260906051940 50 344 6.1 12.2 0.00 0.00 0.00 75 1002.2
20260906051025 50 340 7.0 13.9 0.00 0.00 0.00 76 1002.2
20260906050130 50 339 7.0 13.9 0.00 0.00 0.00 77 1002.1
20260906045212 49 337 6.1 12.2 0.00 0.00 0.00 79 1002.1
20260906044240 49 348 7.8 16.5 0.00 0.00 0.00 80 1002.1
20260906043330 49 336 6.1 12.2 0.00 0.00 0.00 80 1001.9
20260906042445 49 339 6.1 11.3 0.00 0.00 0.00 81 1001.8
20260906041610 49 336 5.2 10.4 0.00 0.00 0.00 81 1001.7
20260906040645 49 336 6.1 13.9 0.00 0.00 0.00 82 1001.6
20260906035815 49 338 7.0 13.9 0.00 0.00 0.00 84 1001.6
20260906034852 49 342 8.7 19.1 0.00 0.00 0.00 86 1001.4
20260906033935 49 330 6.1 19.1 0.00 0.00 0.00 87 1000.9
20260906033050 49 319 3.5 7.8 0.00 0.00 0.00 89 1001.2
20260906032210 49 323 4.3 9.6 0.00 0.00 0.00 88 1001.0
20260906031320 49 323 4.3 8.7 0.00 0.00 0.00 87 1000.8
20260906030415 49 316 3.5 8.7 0.00 0.00 0.00 87 1000.7
20260906025525 49 311 3.5 8.7 0.00 0.00 0.00 86 1000.6
20260906024616 49 296 3.5 8.7 0.00 0.00 0.00 87 1000.5
20260906023705 49 298 3.5 7.0 0.00 0.00 0.00 87 1000.4
20260906022800 50 307 3.5 8.7 0.00 0.00 0.00 86 1000.3
20260906021920 50 309 3.5 7.8 0.00 0.00 0.00 86 1000.1
20260906021020 50 335 3.5 9.6 0.00 0.00 0.00 86 1000.0
20260906020135 50 323 3.5 6.1 0.00 0.00 0.00 86 999.9
20260906015235 50 325 3.5 8.7 0.00 0.00 0.00 87 999.8
20260906014310 50 312 3.5 7.0 0.00 0.00 0.00 87 999.8
20260906013420 50 320 3.5 9.6 0.00 0.00 0.00 87 999.7
20260906012445 50 318 2.6 7.0 0.00 0.00 0.00 87 999.6
20260906011545 50 319 3.5 7.0 0.00 0.00 0.00 87 999.6
20260906010715 50 326 3.5 7.8 0.00 0.00 0.00 86 999.5
20260906005820 50 327 4.3 8.7 0.00 0.00 0.00 86 999.5
20260906004911 49 317 3.5 7.8 0.00 0.00 0.00 87 999.4
20260906004010 49 320 3.5 6.1 0.00 0.00 0.00 87 999.4
20260906003100 49 318 2.6 5.2 0.00 0.00 0.00 88 999.3
20260906002141 48 315 2.6 6.1 0.00 0.00 0.00 88 999.3
20260906001300 48 312 2.6 6.1 0.00 0.00 0.00 88 999.2
20260906000350 49 327 3.5 6.1 0.00 0.00 0.00 88 999.1
20260905235450 49 313 2.6 6.1 0.00 0.00 0.00 88 999.0
20260905234515 49 321 2.6 6.1 0.00 0.00 0.00 87 998.8
20260905233543 49 324 2.6 7.0 0.00 0.00 0.00 87 998.6
20260905232649 50 329 3.5 7.8 0.00 0.00 0.00 86 998.4
20260905231730 50 323 3.5 8.7 0.00 0.00 0.00 87 998.3
20260905230845 50 320 3.5 8.7 0.00 0.00 0.00 87 998.2
20260905225934 50 317 3.5 6.1 0.00 0.00 0.00 86 998.1
20260905224950 51 326 3.5 7.8 0.00 0.00 0.00 86 997.9
20260905224040 51 329 4.3 7.8 0.00 0.00 0.00 85 997.8
20260905223150 51 331 4.3 8.7 0.00 0.00 0.00 86 997.6
20260905222227 51 330 3.5 7.8 0.00 0.00 0.00 86 997.6
20260905221330 51 328 4.3 9.6 0.00 0.00 0.00 87 997.6
20260905220450 51 321 3.5 7.8 0.00 0.00 0.00 87 997.5
20260905215612 51 332 4.3 7.8 0.00 0.00 0.00 86 997.4
20260905214720 52 332 3.5 8.7 0.00 0.00 0.00 86 997.3
20260905213900 52 322 3.5 8.7 0.00 0.00 0.00 85 997.2
20260905213005 52 319 2.6 7.0 0.00 0.00 0.00 84 997.1
20260905212132 53 333 3.5 6.1 0.00 0.00 0.00 83 996.9
20260905211252 53 336 4.3 7.0 0.00 0.00 0.00 81 996.7
20260905210445 53 340 4.3 9.6 0.00 0.00 0.00 81 996.7
20260905205550 53 343 4.3 8.7 0.00 0.00 0.00 81 996.5
20260905204700 54 333 4.3 8.7 0.00 0.00 0.00 81 996.4
20260905203715 54 335 3.5 7.0 0.00 0.00 0.00 82 996.2
20260905202852 54 334 4.3 8.7 0.00 0.00 0.00 81 996.0
20260905202012 55 331 3.5 7.0 0.00 0.00 0.00 81 995.9
20260905201130 55 334 3.5 7.8 0.00 0.00 0.00 80 995.7
20260905200225 55 328 3.5 7.0 0.00 0.00 0.00 80 995.4
20260905195355 55 322 3.5 7.8 0.00 0.00 0.00 79 995.3
20260905194459 56 327 3.5 7.8 0.00 0.00 0.00 78 995.3
20260905193605 56 323 3.5 8.7 0.00 0.00 0.00 78 995.2
20260905192745 56 327 3.5 7.0 0.00 0.00 0.00 77 995.1
20260905191928 56 323 3.5 7.0 0.00 0.00 0.00 77 995.0
20260905191025 57 317 2.6 7.0 0.00 0.00 0.00 76 994.8
20260905190105 57 313 2.6 5.2 0.00 0.00 0.00 75 994.8
20260905185150 57 309 1.7 3.5 0.00 0.00 0.00 74 994.7
20260905184235 57 319 2.6 7.8 0.00 0.00 0.00 73 994.6
20260905183330 57 321 2.6 6.1 0.00 0.00 0.00 73 994.5
20260905182444 57 320 2.6 6.1 0.00 0.00 0.00 72 994.4
20260905181612 57 310 2.6 6.1 0.00 0.00 0.00 71 994.3
20260905180655 58 309 1.7 6.1 0.00 0.00 0.00 71 994.2
20260905175815 58 312 1.7 3.5 0.00 0.00 0.00 70 994.1
20260905175000 58 317 1.7 3.5 0.00 0.00 0.00 70 994.0
20260905174020 58 300 0.9 3.5 0.00 0.00 0.00 70 994.0
20260905173125 58 294 0.9 3.5 0.00 0.00 0.00 70 993.9
20260905172245 59 294 0.9 3.5 0.00 0.00 0.00 68 993.7
20260905171335 59 289 0.9 3.5 0.00 0.00 0.00 68 993.6
20260905170500 59 290 0.9 3.5 0.00 0.00 0.00 67 993.4
20260905165605 59 291 1.7 4.3 0.00 0.00 0.00 66 993.3
20260905164712 60 287 1.7 4.3 0.00 0.00 0.00 65 993.2
20260905163735 60 305 1.7 5.2 0.00 0.00 0.00 64 992.9
20260905162810 60 290 1.7 5.2 0.00 0.00 0.00 62 992.8
20260905161916 61 292 2.6 6.1 0.00 0.00 0.00 61 992.5
20260905161030 61 298 2.6 6.1 0.00 0.00 0.00 59 992.2
20260905160115 62 285 2.6 7.8 0.00 0.00 0.00 58 992.0
20260905155150 62 287 2.6 6.1 0.00 0.00 0.00 58 991.9
20260905154312 62 280 2.6 6.1 0.00 0.00 0.00 59 991.8
20260905153355 62 281 3.5 7.0 0.00 0.00 0.00 60 991.9
20260905152455 61 279 2.6 7.0 0.00 0.00 0.00 60 991.9
20260905151632 62 295 3.5 7.8 0.00 0.00 0.00 58 991.7
20260905150752 62 293 3.5 7.8 0.00 0.00 0.00 57 991.6
20260905145845 62 289 2.6 6.1 0.00 0.00 0.00 58 991.6
20260905144944 62 273 2.6 5.2 0.00 0.00 0.00 57 991.5
20260905144040 62 288 1.7 4.3 0.00 0.00 0.00 56 991.4
20260905143130 62 297 2.6 8.7 0.00 0.00 0.00 54 991.3
20260905142250 62 311 2.6 7.0 0.00 0.00 0.00 54 991.2
20260905141340 62 307 3.5 8.7 0.00 0.00 0.00 53 991.1
20260905140445 63 324 3.5 7.8 0.00 0.00 0.00 51 990.9
20260905135550 63 338 3.5 6.1 0.00 0.00 0.00 51 990.7
20260905134655 63 329 3.5 7.8 0.00 0.00 0.00 49 990.6
20260905133800 64 312 3.5 7.8 0.00 0.00 0.00 48 990.4
20260905132920 64 297 3.5 7.8 0.00 0.00 0.00 49 990.4
20260905132000 64 328 5.2 10.4 0.00 0.00 0.00 49 990.6
20260905131056 63 335 5.2 10.4 0.00 0.00 0.00 50 990.6
20260905130225 63 333 5.2 10.4 0.00 0.00 0.00 51 990.5
20260905125232 64 327 2.6 8.7 0.00 0.00 0.00 53 990.5
20260905124323 62 329 2.6 7.8 0.00 0.00 0.00 56 990.8
20260905123452 62 289 3.5 10.4 0.00 0.00 0.00 56 990.6
20260905122606 63 278 1.7 7.0 0.00 0.00 0.00 55 990.3
20260905121725 64 250 1.7 4.3 0.00 0.00 0.00 53 990.1
20260905120832 64 232 1.7 7.0 0.00 0.00 0.00 57 989.9
20260905115950 64 253 2.6 5.2 0.00 0.00 0.00 55 989.9
20260905115030 64 235 2.6 6.1 0.00 0.00 0.00 56 990.0
20260905114140 63 224 2.6 6.1 0.00 0.00 0.00 59 990.2
20260905113300 62 234 2.6 6.1 0.00 0.00 0.00 60 990.4
20260905112400 61 252 1.7 5.2 0.00 0.00 0.00 61 990.5
20260905111455 61 251 1.7 4.3 0.00 0.00 0.00 61 990.6
20260905110525 61 264 2.6 4.3 0.00 0.00 0.00 59 990.5
20260905105632 61 278 1.7 4.3 0.00 0.00 0.00 59 990.4
20260905104715 61 269 1.7 4.3 0.00 0.00 0.00 62 990.5
20260905103810 60 265 0.9 3.5 0.00 0.00 0.00 61 990.4
20260905102845 60 331 2.6 7.0 0.00 0.00 0.00 62 990.3
20260905101943 61 339 2.6 7.8 0.00 0.00 0.00 61 990.0
20260905101100 62 344 1.7 6.1 0.00 0.00 0.00 58 989.6
20260905100210 62 323 1.7 6.1 0.00 0.00 0.00 57 989.4
20260905095310 62 294 1.7 4.3 0.00 0.00 0.00 59 989.5
20260905094405 62 286 1.7 5.2 0.00 0.00 0.00 60 989.4
20260905093505 62 266 1.7 5.2 0.00 0.00 0.00 58 989.3
20260905092550 62 136 1.7 3.5 0.00 0.00 0.00 62 989.6
20260905091700 62 258 0.9 5.2 0.00 0.00 0.00 64 989.8
20260905090740 60 284 2.6 6.1 0.00 0.00 0.00 64 990.0
20260905085845 60 316 0.9 3.5 0.00 0.00 0.00 66 989.9
20260905085000 59 302 1.7 5.2 0.00 0.00 0.00 69 990.1
20260905084037 59 283 1.7 5.2 0.00 0.00 0.00 71 990.2
20260905083200 59 276 0.9 3.5 0.00 0.00 0.00 72 990.2
20260905082310 59 324 0.9 3.5 0.00 0.00 0.00 73 990.2
20260905081425 58 334 0.9 2.6 0.00 0.00 0.00 74 990.3
20260905080545 57 349 0.9 3.5 0.00 0.00 0.00 77 990.5
20260905075700 56 349 1.7 4.3 0.00 0.00 0.00 80 990.8
20260905074752 55 350 1.7 4.3 0.00 0.00 0.00 82 991.0
20260905073805 54 345 1.7 4.3 0.00 0.00 0.00 84 991.1
20260905072920 53 346 2.6 4.3 0.00 0.00 0.00 86 991.3
20260905072045 52 350 2.6 4.3 0.00 0.00 0.00 87 991.5
20260905071140 52 354 2.6 5.2 0.00 0.00 0.00 88 991.5
20260905070235 52 346 2.6 5.2 0.00 0.00 0.00 87 991.4
20260905065320 52 348 1.7 4.3 0.00 0.00 0.00 87 991.4
20260905064350 51 350 2.6 3.5 0.00 0.00 0.00 88 991.5
20260905063430 51 355 2.6 3.5 0.00 0.00 0.00 88 991.6
20260905062515 50 347 1.7 3.5 0.00 0.00 0.00 88 991.7
20260905061620 49 338 1.7 2.6 0.00 0.00 0.00 89 991.8
20260905060719 48 334 1.7 3.5 0.00 0.00 0.00 90 991.9
20260905055825 48 341 1.7 2.6 0.00 0.00 0.00 90 992.0
20260905054914 48 345 0.9 1.7 0.00 0.00 0.00 92 992.0
20260905054008 47 335 0.0 0.9 0.00 0.00 0.00 92 992.2
20260905053052 46 320 0.9 1.7 0.00 0.00 0.00 92 992.6
20260905052140 45 326 0.9 2.6 0.00 0.00 0.00 92 992.8